Regional Weather Roundup
Issued by NWS New Orleans/Baton Rouge, LA

Home | Current Version | Previous Version | Text Only | Print | Product List | Glossary On
Versions: 1 2 3 4 5 6 7 8 9 10 11 12 13 14 15 16 17 18 19 20 21 22 23 24 25 26 27 28 29 30 31 32 33 34 35 36 37 38 39 40 41 42 43 44 45 46 47 48 49 50
000
ASUS44 KLIX 181412
RWRLIX
NEW ORLEANS REGIONAL WEATHER ROUNDUP
NATIONAL WEATHER SERVICE NEW ORLEANS LA
800 AM CST SAT NOV 18 2017

NOTE: "FAIR" INDICATES FEW OR NO CLOUDS BELOW 12,000 FEET WITH NO
      SIGNIFICANT WEATHER AND/OR OBSTRUCTIONS TO VISIBILITY.
      SKY/WX - SKY CONDITION AND SIGNIFICANT WEATHER.
      TMP - AIR TEMPERATURE.     DP    - DEWPOINT TEMPERATURE.
      RH  - RELATIVE HUMIDITY.   PRES  - PRESSURE.
      HI  - HEAT INDEX.          WCI   - WIND CHILL INDEX.

*  THESE STATIONS ARE NOT NWS OR FAA STATIONS AND ARE NOT UNDER
   NWS QUALITY CONTROL.

LAZ038-040-048-061>063-065>067-069-181500-
SOUTHEAST LOUISIANA

CITY           SKY/WX    TMP DP  RH WIND       PRES   REMARKS
N.O. INTL ARPT MOSUNNY   70  68  93 S9        29.94R
N.O. LAKEFRONT SUNNY     71  67  87 S12       29.94S
N.O. DOWNTOWN*   N/A     70  66  87 S7        29.95R
RESERVE*       CLOUDY    72  66  83 S9        29.93S
SLIDELL        SUNNY     72  65  78 S7        29.93S
BATON ROUGE    MOSUNNY   68  65  90 SE8       29.91R
BOOTHVILLE     SUNNY     73  69  87 S9        29.97R
BELLE CHASSE   NOT AVBL
BOGALUSA*      NOT AVBL
GALLIANO*      MOSUNNY   74  65  75 S9        29.95R
NEW ROADS*       N/A     68  65  92 S6        29.90R
GONZALES*      CLOUDY    68  65  90 S5        29.92R
HAMMOND*       CLOUDY    66  64  94 S5        29.93R
HOUMA*         MOSUNNY   73  70  88 S9        29.94R
PORT FOURCHON* NOT AVBL

$$

MSZ070-080>082-181500-
SOUTHERN MISSISSIPPI

CITY           SKY/WX    TMP DP  RH WIND       PRES   REMARKS
MCCOMB         PTSUNNY   66  63  90 S9        29.91S
GULFPORT       MOSUNNY   72  66  81 S7        29.95R
BILOXI         SUNNY     71  66  84 SW9       29.95R
PASCAGOULA     SUNNY     70  64  81 S6        29.96R
STENNIS ARPT*  MOSUNNY   70  66  88 S8        29.95R

$$

COASTAL OBSERVATIONS
LAKE AND NEARSHORE STATIONS

STATION/POSITION TIME  TEMP    WIND        PRES    WAVE
                       AIR SEA DIR/SP/G            HT/PER
                 (UTC) (F)     (DEG/KT/KT) (MB)    (FT/S)

OFFSHORE STATIONS

STATION/POSITION TIME  TEMP    WIND        PRES    WAVE
                       AIR SEA DIR/SP/G            HT/PER
                 (UTC) (F)     (DEG/KT/KT) (MB)    (FT/S)
64 S DAUPHIN ISL 1350   76 78  190/ 16/ 21 1015.1    3/ 4

$$




USA.gov is the U.S. government's official web portal to all federal, state and local government web resources and services.